Location: 相模原市立博物館
(35.5593°N, 139.3931°E)
Time: 15:23:11
(UTC+09:00)

KAITUO 1B - Visible Passes

Search period start: 28 January 2022 00:00
Search period end: 07 February 2022 00:00
Orbit: 486 x 507 km, 97.4° (Epoch: 27 January)

Date Brightness Start Highest point End Pass type
(mag) Time Alt. Az. Time Alt. Az. Time Alt. Az.
28 Jan ? 06:01:16 10° NNE 06:04:52 61° E 06:08:27 10° S visible
28 Jan ? 18:09:52 10° SSW 18:12:51 24° W 18:15:51 10° NW visible
29 Jan ? 05:40:53 10° NE 05:44:08 30° E 05:47:22 10° SSE visible
29 Jan ? 17:48:36 10° S 17:52:05 47° W 17:55:35 10° NNW visible
30 Jan ? 05:20:56 10° NE 05:23:18 16° E 05:25:40 10° SE visible
30 Jan ? 17:27:46 10° SSE 17:31:21 83° ENE 17:34:58 10° N visible
01 Feb ? 06:11:58 10° NNE 06:15:37 88° ESE 06:19:16 10° SSW visible
01 Feb ? 18:21:08 10° SW 18:23:38 18° W 18:26:08 10° NW visible
02 Feb ? 05:51:23 10° NNE 05:54:52 43° E 05:58:21 10° S visible
02 Feb ? 17:59:31 10° SSW 18:02:47 33° W 18:06:05 10° NNW visible
03 Feb ? 05:31:07 10° NE 05:34:02 22° E 05:36:58 10° SSE visible
03 Feb ? 17:38:26 10° S 17:42:00 68° W 17:45:36 10° NNW visible
04 Feb ? 05:11:38 10° ENE 05:13:09 12° E 05:14:41 10° ESE visible
05 Feb ? 18:32:35 10° WSW 18:34:17 13° W 18:35:59 10° WNW visible
06 Feb ? 06:01:49 10° NNE 06:05:26 62° E 06:09:05 10° S visible
06 Feb ? 18:10:25 10° SSW 18:13:22 24° W 18:16:21 10° NW visible
